| time (UTC) | temp F | wind direction | speed MPH | gust MPH | rain 1hr in | rain 24hr in | rain mn in | humidity % | barometer mb |
| 20260505170003 | 59 | 10 | 5.0 | 16.0 | 0.00 | 0.00 | 0.00 | 60 | 1012.5 |
| 20260505165218 | 60 | 3 | 7.0 | 17.0 | 0.00 | 0.00 | 0.00 | 58 | 1012.4 |
| 20260505164003 | 60 | 1 | 5.0 | 15.0 | 0.00 | 0.00 | 0.00 | 56 | 1012.4 |
| 20260505163003 | 61 | 8 | 4.0 | 9.0 | 0.00 | 0.00 | 0.00 | 58 | 1012.4 |
| 20260505162217 | 61 | 2 | 5.0 | 13.0 | 0.00 | 0.00 | 0.00 | 56 | 1012.4 |
| 20260505161003 | 63 | 15 | 7.0 | 15.0 | 0.00 | 0.00 | 0.00 | 53 | 1012.5 |
| 20260505160217 | 62 | 2 | 5.0 | 12.0 | 0.00 | 0.00 | 0.00 | 58 | 1012.5 |
| 20260505153003 | 61 | 357 | 5.0 | 14.0 | 0.00 | 0.00 | 0.00 | 56 | 1012.6 |
| 20260505152003 | 61 | 327 | 4.0 | 12.0 | 0.00 | 0.00 | 0.00 | 56 | 1012.6 |
| 20260505151003 | 61 | 341 | 5.0 | 14.0 | 0.00 | 0.00 | 0.00 | 57 | 1012.7 |
| 20260505125003 | 62 | 16 | 5.0 | 12.0 | 0.00 | 0.00 | 0.00 | 59 | 1013.2 |
| 20260505124003 | 61 | 323 | 5.0 | 12.0 | 0.00 | 0.00 | 0.00 | 59 | 1013.2 |
| 20260505123003 | 62 | 28 | 7.0 | 15.0 | 0.00 | 0.00 | 0.00 | 57 | 1013.1 |
| 20260505122003 | 63 | 24 | 5.0 | 12.0 | 0.00 | 0.00 | 0.00 | 61 | 1013.2 |
| 20260505121003 | 62 | 23 | 4.0 | 10.0 | 0.00 | 0.00 | 0.00 | 62 | 1013.3 |
| 20260505120218 | 62 | 19 | 5.0 | 13.0 | 0.00 | 0.00 | 0.00 | 60 | 1013.3 |
| 20260505115003 | 62 | 17 | 5.0 | 16.0 | 0.00 | 0.00 | 0.00 | 61 | 1013.3 |
| 20260505114003 | 60 | 6 | 7.0 | 15.0 | 0.00 | 0.00 | 0.00 | 58 | 1013.3 |
| 20260505113003 | 61 | 4 | 7.0 | 15.0 | 0.00 | 0.00 | 0.00 | 58 | 1013.4 |
| 20260505112003 | 61 | 12 | 8.0 | 15.0 | 0.00 | 0.00 | 0.00 | 59 | 1013.5 |
| 20260505111003 | 63 | 15 | 5.0 | 14.0 | 0.00 | 0.00 | 0.00 | 61 | 1013.5 |
| 20260505102003 | 62 | 47 | 7.0 | 10.0 | 0.00 | 0.00 | 0.00 | 66 | 1013.7 |
| 20260505101003 | 61 | 34 | 7.0 | 12.0 | 0.00 | 0.00 | 0.00 | 67 | 1013.7 |
| 20260505100003 | 60 | 36 | 7.0 | 13.0 | 0.00 | 0.00 | 0.00 | 63 | 1013.8 |
| 20260505095003 | 59 | 38 | 8.0 | 12.0 | 0.00 | 0.00 | 0.00 | 68 | 1013.8 |
| 20260505094003 | 58 | 35 | 8.0 | 14.0 | 0.00 | 0.00 | 0.00 | 68 | 1013.8 |
| 20260505093005 | 58 | 24 | 5.0 | 10.0 | 0.00 | 0.00 | 0.00 | 71 | 1013.8 |
| 20260505092003 | 56 | 30 | 5.0 | 12.0 | 0.00 | 0.00 | 0.00 | 73 | 1013.8 |
| 20260505091003 | 55 | 24 | 8.0 | 14.0 | 0.00 | 0.00 | 0.00 | 73 | 1013.9 |
| 20260505090005 | 55 | 17 | 5.0 | 10.0 | 0.00 | 0.00 | 0.00 | 78 | 1013.9 |
| 20260505085004 | 55 | 36 | 7.0 | 12.0 | 0.00 | 0.00 | 0.00 | 75 | 1013.9 |
| 20260505084004 | 55 | 17 | 5.0 | 13.0 | 0.00 | 0.00 | 0.00 | 76 | 1013.9 |
| 20260505083005 | 56 | 21 | 5.0 | 12.0 | 0.00 | 0.00 | 0.00 | 79 | 1014.0 |
| 20260505082003 | 55 | 27 | 9.0 | 14.0 | 0.00 | 0.00 | 0.00 | 82 | 1014.0 |
| 20260505081003 | 54 | 21 | 7.0 | 13.0 | 0.00 | 0.00 | 0.00 | 82 | 1014.0 |
| 20260505080216 | 54 | 36 | 5.0 | 10.0 | 0.00 | 0.00 | 0.00 | 85 | 1014.0 |
| 20260505075003 | 53 | 37 | 5.0 | 12.0 | 0.00 | 0.00 | 0.00 | 87 | 1013.9 |
| 20260505074003 | 52 | 28 | 5.0 | 10.0 | 0.00 | 0.00 | 0.00 | 88 | 1014.0 |
| 20260505073216 | 52 | 27 | 7.0 | 12.0 | 0.00 | 0.00 | 0.00 | 88 | 1013.9 |
| 20260505072003 | 52 | 23 | 5.0 | 12.0 | 0.00 | 0.00 | 0.00 | 90 | 1014.0 |
| 20260505071003 | 51 | 29 | 4.0 | 10.0 | 0.00 | 0.00 | 0.00 | 91 | 1014.0 |
| 20260505070218 | 51 | 38 | 4.0 | 10.0 | 0.00 | 0.00 | 0.00 | 92 | 1014.0 |
| 20260505065218 | 50 | 35 | 3.0 | 8.0 | 0.00 | 0.00 | 0.00 | 93 | 1014.1 |
| 20260505064003 | 50 | 32 | 3.0 | 8.0 | 0.00 | 0.00 | 0.00 | 94 | 1014.0 |
| 20260505063003 | 50 | 21 | 3.0 | 8.0 | 0.00 | 0.00 | 0.00 | 95 | 1014.0 |
| 20260505062003 | 49 | 25 | 3.0 | 8.0 | 0.00 | 0.00 | 0.00 | 95 | 1014.0 |
| 20260505061003 | 49 | 18 | 3.0 | 8.0 | 0.00 | 0.00 | 0.00 | 95 | 1013.9 |
| 20260505060003 | 49 | 21 | 3.0 | 7.0 | 0.00 | 0.00 | 0.00 | 96 | 1013.8 |
| 20260505055003 | 49 | 21 | 2.0 | 9.0 | 0.00 | 0.00 | 0.00 | 96 | 1013.8 |
| 20260505054003 | 49 | 28 | 3.0 | 8.0 | 0.00 | 0.00 | 0.00 | 96 | 1013.7 |
| 20260505053003 | 48 | 5 | 2.0 | 7.0 | 0.00 | 0.00 | 0.00 | 96 | 1013.7 |
| 20260505052003 | 48 | 357 | 2.0 | 6.0 | 0.00 | 0.00 | 0.00 | 97 | 1013.7 |
| 20260505051003 | 48 | 356 | 2.0 | 6.0 | 0.00 | 0.00 | 0.00 | 97 | 1013.6 |
| 20260505041217 | 48 | 0 | 0.0 | 2.0 | 0.00 | 0.00 | 0.00 | 96 | 1013.7 |
| 20260505040004 | 48 | 30 | 1.0 | 4.0 | 0.00 | 0.00 | 0.00 | 96 | 1013.5 |
| 20260505035003 | 48 | 347 | 1.0 | 4.0 | 0.00 | 0.00 | 0.00 | 96 | 1013.4 |
| 20260505034003 | 48 | 0 | 0.0 | 0.0 | 0.00 | 0.00 | 0.00 | 94 | 1013.4 |
| 20260505033003 | 49 | 0 | 0.0 | 2.0 | 0.00 | 0.00 | 0.00 | 95 | 1013.4 |
| 20260505032217 | 49 | 16 | 1.0 | 4.0 | 0.00 | 0.00 | 0.00 | 95 | 1013.4 |
| 20260505031217 | 50 | 12 | 2.0 | 6.0 | 0.00 | 0.00 | 0.00 | 95 | 1013.3 |
| 20260505030003 | 50 | 358 | 2.0 | 5.0 | 0.00 | 0.00 | 0.00 | 95 | 1013.4 |
| 20260505025003 | 50 | 356 | 1.0 | 4.0 | 0.00 | 0.00 | 0.00 | 95 | 1013.4 |
| 20260505024003 | 50 | 353 | 1.0 | 4.0 | 0.00 | 0.00 | 0.00 | 95 | 1013.5 |
| 20260505023003 | 50 | 15 | 1.0 | 3.0 | 0.00 | 0.00 | 0.00 | 95 | 1013.5 |
| 20260505022003 | 50 | 19 | 1.0 | 2.0 | 0.00 | 0.00 | 0.00 | 95 | 1013.6 |
| 20260505021003 | 50 | 0 | 0.0 | 2.0 | 0.00 | 0.00 | 0.00 | 95 | 1013.7 |
| 20260505020003 | 50 | 19 | 1.0 | 2.0 | 0.00 | 0.00 | 0.00 | 95 | 1013.7 |
| 20260505015004 | 50 | 25 | 1.0 | 3.0 | 0.00 | 0.00 | 0.00 | 95 | 1013.8 |
| 20260505014003 | 50 | 16 | 2.0 | 4.0 | 0.00 | 0.00 | 0.00 | 95 | 1013.8 |
| 20260505013003 | 50 | 8 | 2.0 | 5.0 | 0.00 | 0.00 | 0.00 | 95 | 1013.8 |
| 20260505012003 | 50 | 6 | 2.0 | 5.0 | 0.00 | 0.00 | 0.00 | 95 | 1013.9 |
| 20260505011003 | 51 | 333 | 1.0 | 3.0 | 0.00 | 0.00 | 0.00 | 95 | 1013.9 |
| 20260505010218 | 51 | 319 | 2.0 | 5.0 | 0.00 | 0.00 | 0.00 | 95 | 1013.9 |
| 20260505005003 | 51 | 12 | 1.0 | 3.0 | 0.00 | 0.00 | 0.00 | 95 | 1014.0 |
| 20260505004003 | 51 | 47 | 1.0 | 4.0 | 0.00 | 0.00 | 0.00 | 96 | 1014.2 |
| 20260505003218 | 51 | 56 | 2.0 | 4.0 | 0.00 | 0.00 | 0.00 | 96 | 1014.2 |
| 20260505002004 | 50 | 0 | 0.0 | 0.0 | 0.00 | 0.00 | 0.00 | 96 | 1014.3 |
| 20260505001003 | 50 | 0 | 0.0 | 0.0 | 0.00 | 0.00 | 0.00 | 96 | 1014.4 |
| 20260505000003 | 50 | 0 | 0.0 | 0.0 | 0.00 | 0.00 | 0.00 | 96 | 1014.3 |
| 20260504235003 | 50 | 0 | 0.0 | 1.0 | 0.00 | 0.00 | 0.00 | 94 | 1014.3 |
| 20260504234004 | 50 | 316 | 1.0 | 3.0 | 0.00 | 0.00 | 0.00 | 94 | 1014.4 |
| 20260504233003 | 51 | 338 | 2.0 | 3.0 | 0.00 | 0.00 | 0.00 | 94 | 1014.3 |
| 20260504232004 | 51 | 8 | 1.0 | 4.0 | 0.00 | 0.00 | 0.00 | 94 | 1014.2 |
| 20260504231004 | 51 | 342 | 1.0 | 4.0 | 0.00 | 0.00 | 0.00 | 94 | 1014.2 |
| 20260504230219 | 52 | 333 | 3.0 | 6.0 | 0.00 | 0.00 | 0.00 | 94 | 1014.1 |
| 20260504225004 | 52 | 351 | 2.0 | 5.0 | 0.00 | 0.00 | 0.00 | 94 | 1014.1 |
| 20260504224003 | 52 | 18 | 2.0 | 4.0 | 0.00 | 0.00 | 0.00 | 93 | 1014.2 |
| 20260504223003 | 52 | 0 | 0.0 | 3.0 | 0.00 | 0.00 | 0.00 | 93 | 1014.3 |
| 20260504222003 | 52 | 0 | 0.0 | 0.0 | 0.00 | 0.00 | 0.00 | 92 | 1014.3 |
| 20260504221003 | 52 | 0 | 0.0 | 2.0 | 0.00 | 0.00 | 0.00 | 92 | 1014.3 |
| 20260504220005 | 53 | 322 | 1.0 | 3.0 | 0.00 | 0.00 | 0.00 | 92 | 1014.3 |
| 20260504215003 | 53 | 0 | 0.0 | 2.0 | 0.00 | 0.00 | 0.00 | 91 | 1014.3 |
| 20260504214003 | 54 | 322 | 1.0 | 3.0 | 0.00 | 0.00 | 0.00 | 90 | 1014.3 |
| 20260504213003 | 54 | 338 | 1.0 | 4.0 | 0.00 | 0.00 | 0.00 | 90 | 1014.3 |
| 20260504212003 | 54 | 23 | 1.0 | 4.0 | 0.00 | 0.00 | 0.00 | 90 | 1014.3 |
| 20260504211005 | 54 | 25 | 1.0 | 3.0 | 0.00 | 0.00 | 0.00 | 91 | 1014.2 |
| 20260504210004 | 55 | 31 | 2.0 | 5.0 | 0.00 | 0.00 | 0.00 | 91 | 1014.2 |
| 20260504205003 | 55 | 41 | 3.0 | 5.0 | 0.00 | 0.00 | 0.00 | 91 | 1014.2 |
| 20260504204003 | 55 | 51 | 2.0 | 4.0 | 0.00 | 0.00 | 0.00 | 92 | 1014.4 |
| 20260504203003 | 55 | 69 | 1.0 | 3.0 | 0.00 | 0.00 | 0.00 | 92 | 1014.3 |
| 20260504202003 | 56 | 73 | 1.0 | 3.0 | 0.00 | 0.00 | 0.00 | 92 | 1014.4 |
| 20260504201003 | 56 | 76 | 1.0 | 2.0 | 0.00 | 0.00 | 0.00 | 92 | 1014.1 |
| 20260504200004 | 56 | 77 | 1.0 | 3.0 | 0.00 | 0.00 | 0.00 | 92 | 1014.0 |
| 20260504195003 | 56 | 0 | 0.0 | 1.0 | 0.00 | 0.00 | 0.00 | 91 | 1014.0 |
| 20260504194003 | 56 | 77 | 1.0 | 4.0 | 0.00 | 0.00 | 0.00 | 91 | 1014.0 |
| 20260504193218 | 56 | 54 | 2.0 | 5.0 | 0.00 | 0.00 | 0.00 | 91 | 1013.8 |
| 20260504192003 | 57 | 53 | 2.0 | 4.0 | 0.00 | 0.00 | 0.00 | 90 | 1013.7 |
| 20260504191003 | 57 | 46 | 3.0 | 6.0 | 0.00 | 0.00 | 0.00 | 90 | 1013.7 |
| 20260504190218 | 57 | 53 | 4.0 | 7.0 | 0.00 | 0.00 | 0.00 | 90 | 1013.7 |
| 20260504185003 | 57 | 36 | 3.0 | 6.0 | 0.00 | 0.00 | 0.00 | 89 | 1013.6 |
| 20260504184003 | 57 | 48 | 4.0 | 6.0 | 0.00 | 0.00 | 0.00 | 89 | 1013.5 |
| 20260504183003 | 58 | 41 | 3.0 | 6.0 | 0.00 | 0.00 | 0.00 | 90 | 1013.5 |
| 20260504182217 | 58 | 53 | 3.0 | 7.0 | 0.00 | 0.00 | 0.00 | 90 | 1013.5 |
| 20260504181217 | 58 | 51 | 3.0 | 5.0 | 0.00 | 0.00 | 0.00 | 90 | 1013.5 |
| 20260504180217 | 58 | 56 | 3.0 | 6.0 | 0.00 | 0.00 | 0.00 | 89 | 1013.4 |
| 20260504175003 | 58 | 43 | 3.0 | 6.0 | 0.00 | 0.00 | 0.00 | 88 | 1013.5 |
| 20260504174004 | 59 | 63 | 3.0 | 6.0 | 0.00 | 0.00 | 0.00 | 87 | 1013.4 |
| 20260504173003 | 59 | 94 | 1.0 | 4.0 | 0.00 | 0.00 | 0.00 | 85 | 1013.5 |
| 20260504172217 | 59 | 64 | 2.0 | 4.0 | 0.00 | 0.00 | 0.00 | 86 | 1013.5 |